STARLINK-30495, 57968

Orbit data source: Space-Track

STARLINK-30495, 57968 is a payload satellite owned by SpaceX/Seattle (US) in LEO that was launched on Sat, 30 Sep 2023 UTC via an FALCON 9 launch vehicle from the Air Force Eastern Test Range (AFETR). Payload-class satellites include a variety of spacecraft equipped with specific instruments for various scientific and technological missions. These include communications satellites like Starlink; space stations such as the ISS; scientific satellites like the Hubble; Earth observation satellites from companies like Planet Labs, Umbra, and HawkEye 360; GPS; miniature CubeSats for education and research; and military/defense satellites.

Loading next visibility...
Identifier
57968, 2023-151E
Orbit
LEO
Country
Flag of USUS
Related business
Manufacturer
SpaceX/Seattle
Mission
Operational Commercial Communications
Bus & Motor
STARLINK V2M, Unknown motor
Mass
730 kg wet, ~700 kg dry
Launch date (UTC)
2023-09-30 (3 years ago)
Launch vehicle
FALCON 9
Launch site
Air Force Eastern Test Range (AFETR)
Object type
Payload
Rocket body
Debris
Shape & HBR
Box + 2 Pan, 17.7 m
Radar Cross Section
33.884 m², Large (>1 m²)

Expand to show TLE details & history
Last TLE update: 14 hours ago

TLE from 14 hours ago
0 STARLINK-30495
1 57968U 23151E   26130.00528178 -.00001608  00000-0 -48924-4 0  9998
2 57968  43.0035 349.7429 0001543 249.5373 110.5313 15.27579886145143
Epoch: 2026-05-10T00:07Z
TLE epoch observation values (Epoch: 2026-05-10T00:07:36.345Z)
Latitude
-0.00004°
Longitude
120.02684°
Altitude
483.197 km
Speed
7.625 km/s
True Right ascension
23h 18m 58s
True Declination
0° 00' 00"
Sunlit
Object was in daylight at epoch
Visualization orbit readout
Latitude
Unknown
Longitude
Unknown
Altitude
Unknown
Speed
Unknown
Apparent Right ascension
Unknown
Apparent Declination
Unknown
Sunlit
N/A
Visualization observer readout
Local Sidereal Time
22:09:01
Azimuth
Unknown
Elevation
Unknown
Doppler factor
Unknown
Orbital elements
Apogee altitude
486.053 km
Perigee altitude
483.935 km
Semi-major axis
6,863.131 km
Eccentricity
0.00015
Inclination
43.0035°
RAAN
349.7429°
Arg. of periapsis
249.5373°
True anomaly
110.54786°
Mean anomaly
110.5313°
Eccentric anomaly
110.53958°
Mean motion
3.81733 °/min
Orbital period
94.31 mins
BSTAR
-0.000048924
Loading maneuver chart data...
Computing Atmospheric mass density...
Loading historical data...
Loading historical data...
Loading historical data...
Loading historical data...
Loading historical data...
Loading historical data...
Loading historical data...

Documentation

Showing up to 5 results
|